Tasman Mariner — VRWW8 — position and weather

sailwx.info

Track history (hours):
 
Tides and Currents Weather Stations Pressure Air Temp Water Temp Dewpoint Dewpoint Depression Visibility Wind Speed Wind Dir Waves Ship Positions

Tasman Mariner

Last reported at 2014-Aug-28 02:32 UTC. Time now 2014-Sep-03 02:20 UTC.
Position S 26°34' E 153°16'.

Length 184 m; beam 27 m; draft 10 m.

Type: Cargo ship. MMSI: 477860000.

Date/timePositionNaut miles runAvg speedWind from/ knotsBaromVisibWave heightAir tempDewpointWater temp
2014-Aug-28 02:32S 26°34' E 153°16'1010.2
2014-Aug-28 01:33S 26°43' E 153°11'1313.1
2014-Aug-28 00:33S 26°56' E 153°12'1413.9
2014-Aug-27 23:34S 27°08' E 153°21'1010.0
2014-Aug-27 22:33S 27°16' E 153°15'6 6.3
2014-Aug-27 21:34S 27°21' E 153°11'1 1.3
2014-Aug-27 20:31S 27°23' E 153°10'0 0.0
2014-Aug-27 19:28S 27°23' E 153°10'0 0.0
2014-Aug-27 18:31S 27°23' E 153°10'0 0.0
2014-Aug-27 17:31S 27°23' E 153°10'0 0.0
2014-Aug-27 16:31S 27°23' E 153°10'0 0.0
2014-Aug-27 15:31S 27°23' E 153°10'0 0.0
2014-Aug-27 14:31S 27°23' E 153°10'0 0.0
2014-Aug-27 13:31S 27°23' E 153°10'0 0.0
2014-Aug-27 12:31S 27°23' E 153°10'0 0.0
2014-Aug-27 11:31S 27°23' E 153°10'0 0.0
2014-Aug-27 10:31S 27°23' E 153°10'0 0.0
2014-Aug-27 09:31S 27°23' E 153°10'0 0.0
2014-Aug-27 08:31S 27°23' E 153°10'0 0.0
2014-Aug-27 07:31S 27°23' E 153°10'0 0.0
2014-Aug-27 06:31S 27°23' E 153°10'0 0.0
2014-Aug-27 05:28S 27°23' E 153°10'0 0.0
2014-Aug-27 04:31S 27°23' E 153°10'0 0.0
2014-Aug-27 03:31S 27°23' E 153°10'0 0.0
2014-Aug-27 02:31S 27°23' E 153°10'0 0.0
2014-Aug-27 01:31S 27°23' E 153°10'0 0.0
2014-Aug-27 00:31S 27°23' E 153°10'0 0.0
2014-Aug-26 23:31S 27°23' E 153°10'0 0.0
2014-Aug-26 22:31S 27°23' E 153°10'0 0.0
2014-Aug-26 21:25S 27°23' E 153°10'0 0.0
2014-Aug-26 20:31S 27°23' E 153°10'0 0.0
2014-Aug-26 19:31S 27°23' E 153°10'0 0.0
2014-Aug-26 18:31S 27°23' E 153°10'0 0.0
2014-Aug-26 17:31S 27°23' E 153°10'0 0.0
2014-Aug-26 16:31S 27°23' E 153°10'0 0.0
2014-Aug-26 15:31S 27°23' E 153°10'0 0.0
2014-Aug-26 14:31S 27°23' E 153°10'0 0.0
2014-Aug-26 13:31S 27°23' E 153°10'0 0.0
2014-Aug-26 12:31S 27°23' E 153°10'0 0.0
2014-Aug-26 11:31S 27°23' E 153°10'0 0.0
2014-Aug-26 10:31S 27°23' E 153°10'0 0.0
2014-Aug-26 09:31S 27°23' E 153°10'0 0.0
2014-Aug-26 08:31S 27°23' E 153°10'0 0.0
2014-Aug-26 07:28S 27°23' E 153°10'0 0.0
2014-Aug-26 06:31S 27°23' E 153°10'0 0.0
2014-Aug-26 05:31S 27°23' E 153°10'0 0.0
2014-Aug-26 04:31S 27°23' E 153°10'0 0.0
2014-Aug-26 03:31S 27°23' E 153°10'0 0.0
2014-Aug-26 02:31S 27°23' E 153°10'0 0.0
2014-Aug-26 01:31S 27°23' E 153°10'0 0.0
2014-Aug-26 00:31S 27°23' E 153°10'0 0.0
2014-Aug-25 23:31S 27°23' E 153°10'0 0.0
2014-Aug-25 22:31S 27°23' E 153°10'0 0.0
2014-Aug-25 21:31S 27°23' E 153°10'2 2.4
2014-Aug-25 20:33S 27°20' E 153°11'1212.1
2014-Aug-25 19:33S 27°12' E 153°21'22 5.5
2014-Aug-25 15:31S 26°50' E 153°24'1010.5
2014-Aug-25 14:34S 26°55' E 153°33'9 9.2
2014-Aug-25 13:33S 27°03' E 153°38'1110.6
2014-Aug-25 12:33S 27°14' E 153°39'1110.6
2014-Aug-25 11:33S 27°24' E 153°40'1110.6
2014-Aug-25 10:33S 27°35' E 153°40'1110.5
2014-Aug-25 09:34S 27°45' E 153°40'1111.3
2014-Aug-25 08:33S 27°57' E 153°41'1211.7
2014-Aug-25 07:33S 28°08' E 153°41'26611.6
2014-Aug-24 08:33S 32°28' E 152°38'1211.7
2014-Aug-24 07:33S 32°38' E 152°30'1212.2
2014-Aug-24 06:33S 32°48' E 152°22'1212.0
2014-Aug-24 05:34S 32°58' E 152°14'1212.2
2014-Aug-24 04:33S 33°08' E 152°05'  
2014-Aug-21 13:13S 37°14' E 150°11'7 9.9
2014-Aug-21 12:33S 37°20' E 150°09'1010.3
2014-Aug-21 11:32S 37°31' E 150°07'10 9.9
2014-Aug-21 10:33S 37°38' E 149°60'10 9.7
2014-Aug-21 09:33S 37°46' E 149°52'10 9.7
2014-Aug-21 08:33S 37°52' E 149°43'4 0.2
2014-Aug-20 07:33S 37°51' E 149°37'1 1.1
2014-Aug-20 06:31S 37°52' E 149°37'1 1.1
2014-Aug-20 05:28S 37°53' E 149°37'1 0.9
2014-Aug-20 04:25S 37°54' E 149°37'1 0.9
2014-Aug-20 03:09S 37°55' E 149°37'1 0.8
2014-Aug-20 02:26S 37°56' E 149°37'1 0.8
2014-Aug-20 01:30S 37°57' E 149°36'37 6.1
2014-Aug-19 19:26S 38°20' E 148°60'6 7.0
2014-Aug-19 18:33S 38°23' E 148°53'8 7.3
2014-Aug-19 17:31S 38°28' E 148°46'24 7.4
2014-Aug-19 14:16S 38°43' E 148°22'13 7.4
2014-Aug-19 12:28S 38°49' E 148°06'24 7.8
2014-Aug-19 09:22S 38°58' E 147°38'6 7.3
2014-Aug-19 08:33S 39°01' E 147°31'7 7.1
2014-Aug-19 07:33S 39°04' E 147°23'2 1.8
2014-Aug-19 06:33S 39°05' E 147°21'1 0.9
2014-Aug-19 05:33S 39°05' E 147°22'3 3.1
2014-Aug-19 04:33S 39°05' E 147°18'7 6.8
2014-Aug-19 03:33S 39°07' E 147°09'7 7.1
2014-Aug-19 02:33S 39°09' E 147°00'7 7.4
2014-Aug-19 01:33S 39°12' E 146°52'8 7.6
2014-Aug-19 00:33S 39°14' E 146°42'8 7.6
2014-Aug-18 23:33S 39°17' E 146°33'7 7.2
2014-Aug-18 22:33S 39°17' E 146°24'7 6.6
2014-Aug-18 21:33S 39°16' E 146°15'6 5.9
2014-Aug-18 20:33S 39°14' E 146°09'6 6.0
2014-Aug-18 19:33S 39°10' E 146°02'4 3.5
2014-Aug-18 18:33S 39°08' E 146°05'8 7.6
2014-Aug-18 17:33S 39°11' E 146°14'8 7.8
2014-Aug-18 16:33S 39°11' E 146°24'8 8.2
2014-Aug-18 15:33S 39°08' E 146°34'8 7.5
2014-Aug-18 14:33S 39°06' E 146°43'7 7.1
2014-Aug-18 13:33S 39°03' E 146°52'7 7.4
2014-Aug-18 12:33S 39°01' E 147°01'7 7.2
2014-Aug-18 11:33S 38°59' E 147°10'5 5.2
2014-Aug-18 10:33S 38°57' E 147°16'2 1.6
2014-Aug-18 09:33S 38°59' E 147°17'1 1.5
2014-Aug-18 08:33S 39°00' E 147°17'1 1.4
2014-Aug-18 07:33S 39°02' E 147°18'1 1.5
2014-Aug-18 06:33S 39°02' E 147°20'1 1.0
2014-Aug-18 05:33S 39°03' E 147°19'5 4.5
2014-Aug-18 04:33S 39°05' E 147°14'5 4.8
2014-Aug-18 03:33S 39°07' E 147°08'5 5.5
2014-Aug-18 02:33S 39°09' E 147°02'  
Track history (hours):
 
Tides and Currents Weather Stations Pressure Air Temp Water Temp Dewpoint Dewpoint Depression Visibility Wind Speed Wind Dir Waves Ship Positions

Tasman Mariner

Last reported at 2014-Aug-28 02:32 UTC. Time now 2014-Sep-03 02:20 UTC.
Position S 26°34' E 153°16'.

Length 184 m; beam 27 m; draft 10 m.

Type: Cargo ship. MMSI: 477860000.

Date/timePositionNaut miles runAvg speedWind from/ knotsBaromVisibWave heightAir tempDewpointWater temp
2014-Aug-28 02:32S 26°34' E 153°16'1010.2
2014-Aug-28 01:33S 26°43' E 153°11'1313.1
2014-Aug-28 00:33S 26°56' E 153°12'1413.9
2014-Aug-27 23:34S 27°08' E 153°21'1010.0
2014-Aug-27 22:33S 27°16' E 153°15'6 6.3
2014-Aug-27 21:34S 27°21' E 153°11'1 1.3
2014-Aug-27 20:31S 27°23' E 153°10'0 0.0
2014-Aug-27 19:28S 27°23' E 153°10'0 0.0
2014-Aug-27 18:31S 27°23' E 153°10'0 0.0
2014-Aug-27 17:31S 27°23' E 153°10'0 0.0
2014-Aug-27 16:31S 27°23' E 153°10'0 0.0
2014-Aug-27 15:31S 27°23' E 153°10'0 0.0
2014-Aug-27 14:31S 27°23' E 153°10'0 0.0
2014-Aug-27 13:31S 27°23' E 153°10'0 0.0
2014-Aug-27 12:31S 27°23' E 153°10'0 0.0
2014-Aug-27 11:31S 27°23' E 153°10'0 0.0
2014-Aug-27 10:31S 27°23' E 153°10'0 0.0
2014-Aug-27 09:31S 27°23' E 153°10'0 0.0
2014-Aug-27 08:31S 27°23' E 153°10'0 0.0
2014-Aug-27 07:31S 27°23' E 153°10'0 0.0
2014-Aug-27 06:31S 27°23' E 153°10'0 0.0
2014-Aug-27 05:28S 27°23' E 153°10'0 0.0
2014-Aug-27 04:31S 27°23' E 153°10'0 0.0
2014-Aug-27 03:31S 27°23' E 153°10'0 0.0
2014-Aug-27 02:31S 27°23' E 153°10'0 0.0
2014-Aug-27 01:31S 27°23' E 153°10'0 0.0
2014-Aug-27 00:31S 27°23' E 153°10'0 0.0
2014-Aug-26 23:31S 27°23' E 153°10'0 0.0
2014-Aug-26 22:31S 27°23' E 153°10'0 0.0
2014-Aug-26 21:25S 27°23' E 153°10'0 0.0
2014-Aug-26 20:31S 27°23' E 153°10'0 0.0
2014-Aug-26 19:31S 27°23' E 153°10'0 0.0
2014-Aug-26 18:31S 27°23' E 153°10'0 0.0
2014-Aug-26 17:31S 27°23' E 153°10'0 0.0
2014-Aug-26 16:31S 27°23' E 153°10'0 0.0
2014-Aug-26 15:31S 27°23' E 153°10'0 0.0
2014-Aug-26 14:31S 27°23' E 153°10'0 0.0
2014-Aug-26 13:31S 27°23' E 153°10'0 0.0
2014-Aug-26 12:31S 27°23' E 153°10'0 0.0
2014-Aug-26 11:31S 27°23' E 153°10'0 0.0
2014-Aug-26 10:31S 27°23' E 153°10'0 0.0
2014-Aug-26 09:31S 27°23' E 153°10'0 0.0
2014-Aug-26 08:31S 27°23' E 153°10'0 0.0
2014-Aug-26 07:28S 27°23' E 153°10'0 0.0
2014-Aug-26 06:31S 27°23' E 153°10'0 0.0
2014-Aug-26 05:31S 27°23' E 153°10'0 0.0
2014-Aug-26 04:31S 27°23' E 153°10'0 0.0
2014-Aug-26 03:31S 27°23' E 153°10'0 0.0
2014-Aug-26 02:31S 27°23' E 153°10'0 0.0
2014-Aug-26 01:31S 27°23' E 153°10'0 0.0
2014-Aug-26 00:31S 27°23' E 153°10'0 0.0
2014-Aug-25 23:31S 27°23' E 153°10'0 0.0
2014-Aug-25 22:31S 27°23' E 153°10'0 0.0
2014-Aug-25 21:31S 27°23' E 153°10'2 2.4
2014-Aug-25 20:33S 27°20' E 153°11'1212.1
2014-Aug-25 19:33S 27°12' E 153°21'22 5.5
2014-Aug-25 15:31S 26°50' E 153°24'1010.5
2014-Aug-25 14:34S 26°55' E 153°33'9 9.2
2014-Aug-25 13:33S 27°03' E 153°38'1110.6
2014-Aug-25 12:33S 27°14' E 153°39'1110.6
2014-Aug-25 11:33S 27°24' E 153°40'1110.6
2014-Aug-25 10:33S 27°35' E 153°40'1110.5
2014-Aug-25 09:34S 27°45' E 153°40'1111.3
2014-Aug-25 08:33S 27°57' E 153°41'1211.7
2014-Aug-25 07:33S 28°08' E 153°41'26611.6
2014-Aug-24 08:33S 32°28' E 152°38'1211.7
2014-Aug-24 07:33S 32°38' E 152°30'1212.2
2014-Aug-24 06:33S 32°48' E 152°22'1212.0
2014-Aug-24 05:34S 32°58' E 152°14'1212.2
2014-Aug-24 04:33S 33°08' E 152°05'  
2014-Aug-21 13:13S 37°14' E 150°11'7 9.9
2014-Aug-21 12:33S 37°20' E 150°09'1010.3
2014-Aug-21 11:32S 37°31' E 150°07'10 9.9
2014-Aug-21 10:33S 37°38' E 149°60'10 9.7
2014-Aug-21 09:33S 37°46' E 149°52'10 9.7
2014-Aug-21 08:33S 37°52' E 149°43'4 0.2
2014-Aug-20 07:33S 37°51' E 149°37'1 1.1
2014-Aug-20 06:31S 37°52' E 149°37'1 1.1
2014-Aug-20 05:28S 37°53' E 149°37'1 0.9
2014-Aug-20 04:25S 37°54' E 149°37'1 0.9
2014-Aug-20 03:09S 37°55' E 149°37'1 0.8
2014-Aug-20 02:26S 37°56' E 149°37'1 0.8
2014-Aug-20 01:30S 37°57' E 149°36'37 6.1
2014-Aug-19 19:26S 38°20' E 148°60'6 7.0
2014-Aug-19 18:33S 38°23' E 148°53'8 7.3
2014-Aug-19 17:31S 38°28' E 148°46'24 7.4
2014-Aug-19 14:16S 38°43' E 148°22'13 7.4
2014-Aug-19 12:28S 38°49' E 148°06'24 7.8
2014-Aug-19 09:22S 38°58' E 147°38'6 7.3
2014-Aug-19 08:33S 39°01' E 147°31'7 7.1
2014-Aug-19 07:33S 39°04' E 147°23'2 1.8
2014-Aug-19 06:33S 39°05' E 147°21'1 0.9
2014-Aug-19 05:33S 39°05' E 147°22'3 3.1
2014-Aug-19 04:33S 39°05' E 147°18'7 6.8
2014-Aug-19 03:33S 39°07' E 147°09'7 7.1
2014-Aug-19 02:33S 39°09' E 147°00'7 7.4
2014-Aug-19 01:33S 39°12' E 146°52'8 7.6
2014-Aug-19 00:33S 39°14' E 146°42'8 7.6
2014-Aug-18 23:33S 39°17' E 146°33'7 7.2
2014-Aug-18 22:33S 39°17' E 146°24'7 6.6
2014-Aug-18 21:33S 39°16' E 146°15'6 5.9
2014-Aug-18 20:33S 39°14' E 146°09'6 6.0
2014-Aug-18 19:33S 39°10' E 146°02'4 3.5
2014-Aug-18 18:33S 39°08' E 146°05'8 7.6
2014-Aug-18 17:33S 39°11' E 146°14'8 7.8
2014-Aug-18 16:33S 39°11' E 146°24'8 8.2
2014-Aug-18 15:33S 39°08' E 146°34'8 7.5
2014-Aug-18 14:33S 39°06' E 146°43'7 7.1
2014-Aug-18 13:33S 39°03' E 146°52'7 7.4
2014-Aug-18 12:33S 39°01' E 147°01'7 7.2
2014-Aug-18 11:33S 38°59' E 147°10'5 5.2
2014-Aug-18 10:33S 38°57' E 147°16'2 1.6
2014-Aug-18 09:33S 38°59' E 147°17'1 1.5
2014-Aug-18 08:33S 39°00' E 147°17'1 1.4
2014-Aug-18 07:33S 39°02' E 147°18'1 1.5
2014-Aug-18 06:33S 39°02' E 147°20'1 1.0
2014-Aug-18 05:33S 39°03' E 147°19'5 4.5
2014-Aug-18 04:33S 39°05' E 147°14'5 4.8
2014-Aug-18 03:33S 39°07' E 147°08'5 5.5
2014-Aug-18 02:33S 39°09' E 147°02'  

Dump ship's entire track history